Weather History for Olympia, WA

Change the Weather History Date:

Thursday, February 16, 2012

  Actual Average Record
Temperature  
Mean Temperature 39 °F 41 °F  
Max Temperature 45 °F 49 °F 59 °F (1997)
Min Temperature 32 °F 33 °F 14 °F (1956)
Degree Days  
Heating Degree Days 26 24  
Month to date heating degree days 369 385  
Since 1 July heating degree days 3580 3436  
Cooling Degree Days 0 0  
Month to date cooling degree days 0 0  
Year to date cooling degree days 0 0  
Moisture  
Dew Point 39 °F    
Average Humidity 90    
Maximum Humidity 96    
Minimum Humidity 83    
Precipitation  
Precipitation 0.14 in 0.17 in 2.23 in (1949)
Month to date precipitation 1.22 3.13  
Year to date precipitation 9.94 10.97  
Sea Level Pressure  
Sea Level Pressure 30.26 in    
Wind  
Wind Speed 6 mph (SW)    
Max Wind Speed 18 mph    
Max Gust Speed 25 mph    
Visibility 8 miles    
Events Rain    
T = Trace of Precipitation, MM = Missing Value Source: NWS Daily Summary

Daily Weather History Graph

Daily Weather History Graph

Search for Another Location

Airport:

Trip Planner

Search our weather history database for the weather conditions in past years. The results will help you decide how hot, cold, wet, or windy it might be!

Date:

Astronomy

Feb. 16, 2012 Rise Set
Actual Time 7:15 AM PST 5:37 PM PST
Civil Twilight 6:43 AM PST 6:08 PM PST
Nautical Twilight 6:08 AM PST 6:43 PM PST
Astronomical Twilight 5:33 AM PST 7:19 PM PST
Moon 3:29 AM PST (2/16) 12:20 PM PST (2/16)
Length of Visible Light 11h 24m
Length of Day
10h 22m
Waning Crescent, 27% of the Moon is Illuminated
Feb 16
Waning Crescent
Feb 21
New
Feb 29
First Quarter
Mar 8
Full
Mar 14
Last Quarter

Hourly Weather History & Observations

Time (PST) Temp. Windchill Dew Point Humidity Pressure Visibility Wind Dir Wind Speed Gust Speed Precip Events Conditions
12:54 AM 34.0 °F 29.8 °F 32.0 °F 92% 30.31 in 10.0 mi South 4.6 mph - N/A   Clear
1:54 AM 35.6 °F 31.7 °F 33.8 °F 93% 30.29 in 10.0 mi SSW 4.6 mph - N/A   Overcast
2:54 AM 36.0 °F - 33.1 °F 89% 30.29 in 10.0 mi Calm Calm - N/A   Overcast
3:54 AM 36.0 °F 30.3 °F 33.1 °F 89% 30.29 in 10.0 mi WSW 6.9 mph - N/A   Overcast
4:54 AM 36.0 °F 33.3 °F 33.1 °F 89% 30.27 in 10.0 mi South 3.5 mph - N/A   Overcast
5:54 AM 37.0 °F - 33.1 °F 86% 30.25 in 10.0 mi Calm Calm - N/A   Overcast
6:54 AM 37.0 °F 33.3 °F 34.0 °F 89% 30.25 in 10.0 mi SW 4.6 mph - 0.00 in   Overcast
7:54 AM 37.0 °F 34.5 °F 35.1 °F 93% 30.24 in 9.0 mi SW 3.5 mph - 0.02 in Rain Light Rain
8:54 AM 39.0 °F 34.8 °F 37.0 °F 93% 30.24 in 6.0 mi SSW 5.8 mph - 0.02 in Rain Light Rain
9:14 AM 39.2 °F 33.6 °F 37.4 °F 93% 30.23 in 4.0 mi SSW 8.1 mph - 0.02 in Rain Light Rain
9:45 AM 39.2 °F 34.2 °F 37.4 °F 93% 30.24 in 4.0 mi SSW 6.9 mph - 0.04 in Rain Rain
9:54 AM 39.0 °F 34.8 °F 37.0 °F 93% 30.25 in 3.0 mi SW 5.8 mph - 0.06 in Rain Light Rain
10:15 AM 39.2 °F 35.0 °F 37.4 °F 93% 30.25 in 6.0 mi SW 5.8 mph - 0.01 in Rain Light Rain
10:54 AM 41.0 °F 35.8 °F 39.0 °F 93% 30.26 in 4.0 mi SSW 8.1 mph - 0.02 in Rain Light Rain
11:54 AM 43.0 °F 35.7 °F 39.9 °F 89% 30.26 in 4.0 mi SSW 15.0 mph 21.9 mph 0.02 in Rain Light Rain
12:54 PM 44.6 °F 36.9 °F 42.8 °F 93% 30.23 in 5.0 mi South 18.4 mph 23.0 mph N/A   Overcast
1:54 PM 44.1 °F 37.4 °F 41.0 °F 89% 30.23 in 10.0 mi SSW 13.8 mph - N/A   Overcast
2:54 PM 44.1 °F 38.1 °F 42.1 °F 93% 30.24 in 6.0 mi South 11.5 mph - N/A   Overcast
3:05 PM 44.6 °F 39.2 °F 42.8 °F 93% 30.23 in 7.0 mi South 10.4 mph - N/A   Overcast
3:54 PM 44.1 °F 39.5 °F 42.1 °F 93% 30.24 in 9.0 mi SSW 8.1 mph - N/A   Overcast
4:54 PM 45.0 °F 40.6 °F 41.0 °F 86% 30.24 in 10.0 mi SSW 8.1 mph - N/A   Overcast
5:54 PM 44.1 °F 40.1 °F 41.0 °F 89% 30.25 in 10.0 mi SW 6.9 mph - N/A   Overcast
6:54 PM 44.1 °F 42.5 °F 39.9 °F 85% 30.25 in 10.0 mi SW 3.5 mph - N/A   Overcast
7:54 PM 43.0 °F - 41.0 °F 93% 30.25 in 10.0 mi Calm Calm - N/A   Overcast
8:14 PM 42.8 °F - 41.0 °F 93% 30.25 in 10.0 mi Calm Calm - N/A   Overcast
8:54 PM 42.1 °F 40.2 °F 41.0 °F 96% 30.26 in 10.0 mi West 3.5 mph - N/A   Overcast
9:54 PM 42.1 °F 40.2 °F 41.0 °F 96% 30.27 in 8.0 mi WSW 3.5 mph - N/A   Overcast
10:10 PM 42.8 °F - 41.0 °F 93% 30.27 in 8.0 mi Calm Calm - N/A   Overcast
10:21 PM 42.8 °F - 41.0 °F 93% 30.27 in 10.0 mi Calm Calm - N/A   Overcast
10:54 PM 42.1 °F - 41.0 °F 96% 30.27 in 5.0 mi Calm Calm - N/A   Overcast
11:05 PM 42.8 °F - 41.0 °F 93% 30.26 in 4.0 mi Calm Calm - N/A   Overcast
11:19 PM 42.8 °F - 41.0 °F 93% 30.27 in 5.0 mi Calm Calm - N/A   Overcast
11:35 PM 42.8 °F - 41.0 °F 93% 30.26 in 5.0 mi Calm Calm - N/A   Overcast
11:54 PM 42.1 °F - 41.0 °F 96% 30.26 in 10.0 mi Calm Calm - N/A   Overcast